Weather History for Holdrege, NE

Change the Weather History Date:

Saturday, January 19, 2013

  Actual Average Record
Temperature  
Mean Temperature 43 °F -  
Max Temperature 56 °F 35 °F 66 °F (2014)
Min Temperature 30 °F 15 °F -14 °F (1984)
Degree Days  
Heating Degree Days 22    
Moisture  
Dew Point 26 °F    
Average Humidity 55    
Maximum Humidity 82    
Minimum Humidity 30    
Precipitation  
Precipitation 0.00 in - - ()
Sea Level Pressure  
Sea Level Pressure 30.09 in    
Wind  
Wind Speed 11 mph (NW)    
Max Wind Speed 16 mph    
Max Gust Speed 23 mph    
Visibility 10 miles    
Events      
Averages and records for this station are not official NWS values.
T = Trace of Precipitation, MM = Missing Value Source: NWS Daily Summary

Daily Weather History Graph

Daily Weather History Graph

Search for Another Location

Airport:

Trip Planner

Search our weather history database for the weather conditions in past years. The results will help you decide how hot, cold, wet, or windy it might be!

Date:

Astronomy

Jan. 19, 2013 Rise Set
Actual Time 7:56 AM CST 5:40 PM CST
Civil Twilight 7:26 AM CST 6:10 PM CST
Nautical Twilight 6:53 AM CST 6:43 PM CST
Astronomical Twilight 6:20 AM CST 7:15 PM CST
Moon 12:07 PM CST 1:32 AM CST
Length of Visible Light 10h 43m
Length of Day
9h 43m
First Quarter, 57% of the Moon is Illuminated
Jan 19
First Quarter
Jan 26
Full
Feb 3
Last Quarter
Feb 10
New
Feb 17
First Quarter

Hourly Weather History & Observations

Time (CST) Temp. Windchill Dew Point Humidity Pressure Visibility Wind Dir Wind Speed Gust Speed Precip Events Conditions
12:15 AM 42.8 °F 36.2 °F 25.7 °F 51% 29.92 in 10.0 mi West 12.7 mph - N/A   Clear
12:35 AM 41.2 °F 35.0 °F 25.7 °F 54% 29.92 in 10.0 mi West 10.4 mph - N/A   Clear
12:55 AM 39.0 °F 32.3 °F 25.5 °F 58% 29.92 in 10.0 mi West 10.4 mph - N/A   Clear
1:15 AM 38.7 °F 32.9 °F 24.8 °F 58% 29.91 in 10.0 mi West 8.1 mph - N/A   Clear
1:35 AM 38.3 °F 31.4 °F 24.4 °F 57% 29.92 in 10.0 mi WSW 10.4 mph - N/A   Clear
1:55 AM 37.8 °F 30.2 °F 25.7 °F 62% 29.93 in 10.0 mi West 11.5 mph - N/A   Clear
2:15 AM 35.8 °F 27.8 °F 25.7 °F 67% 29.93 in 10.0 mi West 11.5 mph - N/A   Clear
2:35 AM 35.8 °F 26.9 °F 25.2 °F 65% 29.93 in 10.0 mi West 13.8 mph 19.6 mph N/A   Clear
2:55 AM 37.6 °F 30.0 °F 23.9 °F 58% 29.94 in 10.0 mi WNW 11.5 mph - N/A   Clear
3:15 AM 38.7 °F 32.4 °F 23.7 °F 55% 29.94 in 10.0 mi WNW 9.2 mph - N/A   Clear
3:35 AM 37.8 °F 29.4 °F 23.5 °F 57% 29.94 in 10.0 mi West 13.8 mph - N/A   Clear
3:55 AM 36.1 °F 28.7 °F 23.5 °F 60% 29.93 in 10.0 mi WNW 10.4 mph - N/A   Clear
4:15 AM 34.9 °F 27.7 °F 23.4 °F 63% 29.93 in 10.0 mi WNW 9.2 mph - N/A   Clear
4:35 AM 35.2 °F 27.6 °F 23.4 °F 62% 29.93 in 10.0 mi WNW 10.4 mph - N/A   Clear
4:55 AM 34.7 °F 27.5 °F 23.5 °F 64% 29.94 in 10.0 mi NW 9.2 mph - N/A   Clear
5:15 AM 36.7 °F 29.9 °F 23.9 °F 60% 29.96 in 10.0 mi WNW 9.2 mph - N/A   Clear
5:35 AM 36.9 °F 30.1 °F 23.5 °F 59% 29.96 in 10.0 mi WNW 9.2 mph - N/A   Clear
5:55 AM 36.1 °F 30.6 °F 23.2 °F 59% 29.96 in 10.0 mi WNW 6.9 mph - N/A   Clear
7:15 AM 37.4 °F 28.9 °F 23.5 °F 57% 30.00 in 10.0 mi NW 13.8 mph 20.7 mph N/A   Clear
7:55 AM 35.8 °F 27.8 °F 23.9 °F 62% 30.02 in 10.0 mi WNW 11.5 mph - N/A   Clear
8:15 AM 35.4 °F 26.8 °F 23.9 °F 63% 30.04 in 10.0 mi WNW 12.7 mph - N/A   Clear
8:35 AM 36.7 °F 27.6 °F 23.9 °F 60% 30.05 in 10.0 mi WNW 15.0 mph 20.7 mph N/A   Clear
9:35 AM 40.1 °F 33.2 °F 25.5 °F 56% 30.08 in 10.0 mi WNW 11.5 mph - N/A   Clear
9:55 AM 41.7 °F 36.1 °F 25.5 °F 53% 30.09 in 10.0 mi WNW 9.2 mph - N/A   Clear
10:15 AM 43.3 °F 37.7 °F 25.7 °F 50% 30.10 in 10.0 mi WNW 10.4 mph - N/A   Clear
10:35 AM 44.8 °F 39.4 °F 26.4 °F 49% 30.11 in 10.0 mi WNW 10.4 mph - N/A   Clear
11:15 AM 48.2 °F - 28.2 °F 46% 30.12 in 10.0 mi NW 12.7 mph - N/A   Clear
11:35 AM 49.5 °F - 28.6 °F 45% 30.11 in 10.0 mi NW 11.5 mph - N/A   Clear
11:55 AM 50.7 °F - 28.6 °F 42% 30.11 in 10.0 mi NW 11.5 mph - N/A   Clear
12:15 PM 51.4 °F - 27.5 °F 40% 30.10 in 10.0 mi NW 12.7 mph - N/A   Clear
12:35 PM 52.5 °F - 27.3 °F 38% 30.10 in 10.0 mi NW 12.7 mph - N/A   Clear
12:55 PM 53.8 °F - 26.4 °F 35% 30.10 in 10.0 mi NW 13.8 mph 20.7 mph N/A   Clear
1:15 PM 54.5 °F - 26.4 °F 34% 30.09 in 10.0 mi NW 16.1 mph 19.6 mph N/A   Clear
1:35 PM 55.0 °F - 27.5 °F 35% 30.09 in 10.0 mi NW 10.4 mph - N/A   Clear
1:55 PM 55.6 °F - 25.5 °F 31% 30.09 in 10.0 mi NNW 16.1 mph 23.0 mph N/A   Clear
2:15 PM 56.3 °F - 25.5 °F 31% 30.09 in 10.0 mi NNW 15.0 mph 20.7 mph N/A   Clear
2:35 PM 56.3 °F - 25.3 °F 30% 30.09 in 10.0 mi NNW 11.5 mph 18.4 mph N/A   Clear
2:55 PM 56.5 °F - 25.3 °F 30% 30.10 in 10.0 mi NW 11.5 mph 17.3 mph N/A   Clear
3:15 PM 56.5 °F - 25.2 °F 30% 30.10 in 10.0 mi NNW 10.4 mph 19.6 mph N/A   Clear
3:35 PM 55.9 °F - 26.2 °F 32% 30.11 in 10.0 mi NNW 9.2 mph - N/A   Clear
3:55 PM 55.9 °F - 27.0 °F 33% 30.11 in 10.0 mi NW 11.5 mph 18.4 mph N/A   Clear
4:15 PM 54.9 °F - 25.0 °F 32% 30.13 in 10.0 mi NW 11.5 mph - N/A   Clear
4:35 PM 53.6 °F - 25.9 °F 34% 30.13 in 10.0 mi NNW 11.5 mph - N/A   Clear
4:55 PM 52.0 °F - 25.7 °F 36% 30.14 in 10.0 mi NNW 11.5 mph - N/A   Clear
5:15 PM 49.5 °F - 26.2 °F 40% 30.15 in 10.0 mi NNW 10.4 mph - N/A   Clear
5:35 PM 46.8 °F - 25.9 °F 44% 30.16 in 10.0 mi North 9.2 mph - N/A   Clear
5:55 PM 45.9 °F 41.2 °F 23.9 °F 42% 30.16 in 10.0 mi North 9.2 mph - N/A   Clear
6:15 PM 41.7 °F 36.7 °F 25.3 °F 52% 30.17 in 10.0 mi North 8.1 mph - N/A   Clear
6:35 PM 39.4 °F 33.2 °F 26.2 °F 59% 30.17 in 10.0 mi North 9.2 mph - N/A   Clear
6:55 PM 38.5 °F 32.1 °F 26.2 °F 61% 30.19 in 10.0 mi North 9.2 mph - N/A   Clear
7:15 PM 38.5 °F 32.1 °F 26.6 °F 62% 30.19 in 10.0 mi North 9.2 mph - N/A   Clear
7:35 PM 37.8 °F 31.8 °F 26.4 °F 64% 30.20 in 10.0 mi North 8.1 mph - N/A   Clear
7:55 PM 39.6 °F 33.5 °F 25.7 °F 58% 30.21 in 10.0 mi North 9.2 mph - N/A   Clear
8:15 PM 37.0 °F 29.8 °F 26.6 °F 66% 30.21 in 10.0 mi North 10.4 mph - N/A   Clear
8:35 PM 35.4 °F 30.5 °F 27.1 °F 72% 30.22 in 10.0 mi North 5.8 mph - N/A   Clear
8:55 PM 35.6 °F 30.7 °F 26.6 °F 70% 30.23 in 10.0 mi North 5.8 mph - N/A   Clear
9:15 PM 34.7 °F 28.1 °F 26.2 °F 71% 30.23 in 10.0 mi North 8.1 mph - N/A   Clear
9:35 PM 33.3 °F 27.9 °F 26.1 °F 75% 30.24 in 10.0 mi NNE 5.8 mph - N/A   Clear
9:55 PM 32.4 °F 25.3 °F 26.1 °F 78% 30.24 in 10.0 mi NNE 8.1 mph - N/A   Clear
10:15 PM 32.0 °F 25.6 °F 25.9 °F 78% 30.26 in 10.0 mi NNE 6.9 mph - N/A   Clear
10:35 PM 32.0 °F 27.5 °F 25.9 °F 78% 30.26 in 10.0 mi North 4.6 mph - N/A   Clear
10:55 PM 31.5 °F 24.9 °F 25.7 °F 79% 30.26 in 10.0 mi NNE 6.9 mph - N/A   Clear
11:15 PM 30.7 °F 23.3 °F 25.7 °F 82% 30.27 in 10.0 mi NNE 8.1 mph - N/A   Clear
11:35 PM 32.2 °F 23.8 °F 26.2 °F 79% 30.27 in 10.0 mi NE 10.4 mph - N/A   Clear
11:55 PM 32.0 °F 22.5 °F 26.6 °F 80% 30.26 in 10.0 mi NE 12.7 mph - N/A   Clear